RYR6AJ LHBP-EPMO

Flight info

Callsign RYR6AJ
Flight time 1h 7m
Altitude 24000
Route LITKU Y301 KALIF/N0444F330 DCT KELEL DCT ORTEB/N0442F320 DCT KONZI DCT LOGDA
Aircraft B38M/M-SDE1FGHILORVWXY/HB1

Departure

Time 2026-04-15 12:29
Airport Budapest Liszt Ferenc International Airport (LHBP)

Arrival

Time 2026-04-15 13:36
Airport Warsaw Modlin Airport (EPMO)
Time Latitude Longitude Altitude Speed Heading
2026-04-15 11:54 47.43563 19.26391 460 ft 0 kts 222°
2026-04-15 12:16 47.43571 19.26401 460 ft 4 kts 217°
2026-04-15 12:16 47.43594 19.26419 460 ft 4 kts 191°
2026-04-15 12:16 47.43619 19.26417 457 ft 4 kts 153°
2026-04-15 12:17 47.43634 19.26400 460 ft 0 kts 132°
2026-04-15 12:21 47.43626 19.26413 457 ft 3 kts 132°
2026-04-15 12:21 47.43604 19.26450 457 ft 6 kts 132°
2026-04-15 12:21 47.43567 19.26509 460 ft 9 kts 132°
2026-04-15 12:22 47.43523 19.26580 458 ft 9 kts 132°
2026-04-15 12:22 47.43460 19.26682 460 ft 16 kts 132°
2026-04-15 12:22 47.43374 19.26819 460 ft 19 kts 133°
2026-04-15 12:22 47.43299 19.26969 457 ft 13 kts 94°
2026-04-15 12:23 47.43346 19.27084 460 ft 14 kts 11°
2026-04-15 12:23 47.43426 19.27001 461 ft 16 kts 312°
2026-04-15 12:23 47.43506 19.26873 461 ft 18 kts 313°
2026-04-15 12:23 47.43597 19.26726 461 ft 21 kts 313°
2026-04-15 12:24 47.43700 19.26563 460 ft 23 kts 313°
2026-04-15 12:24 47.43810 19.26379 460 ft 25 kts 311°
2026-04-15 12:24 47.43913 19.26211 459 ft 10 kts 296°
2026-04-15 12:24 47.43888 19.26116 460 ft 12 kts 220°
2026-04-15 12:25 47.43819 19.26024 460 ft 15 kts 222°
2026-04-15 12:25 47.43734 19.25911 460 ft 18 kts 222°
2026-04-15 12:25 47.43637 19.25781 460 ft 20 kts 222°
2026-04-15 12:25 47.43529 19.25637 460 ft 22 kts 222°
2026-04-15 12:26 47.43408 19.25473 460 ft 25 kts 223°
2026-04-15 12:26 47.43275 19.25295 460 ft 27 kts 222°
2026-04-15 12:26 47.43131 19.25103 460 ft 29 kts 222°
2026-04-15 12:26 47.43067 19.25008 459 ft 2 kts 259°
2026-04-15 12:27 47.43075 19.24981 460 ft 6 kts 310°
2026-04-15 12:27 47.43096 19.24948 459 ft 1 kts 313°
2026-04-15 12:27 47.43104 19.24934 460 ft 0 kts 313°
2026-04-15 12:27 47.43111 19.24922 460 ft 3 kts 313°
2026-04-15 12:28 47.43119 19.24911 460 ft 6 kts 313°
2026-04-15 12:28 47.43327 19.24576 455 ft 85 kts 313°
2026-04-15 12:28 47.43888 19.23667 458 ft 151 kts 311°
2026-04-15 12:28 47.44687 19.22392 790 ft 179 kts 314°
2026-04-15 12:29 47.45590 19.20997 1500 ft 195 kts 313°
2026-04-15 12:29 47.46513 19.19558 2563 ft 191 kts 313°
2026-04-15 12:29 47.47469 19.18073 3265 ft 204 kts 314°
2026-04-15 12:29 47.48445 19.16642 4269 ft 198 kts 314°
2026-04-15 12:30 47.49390 19.15036 4800 ft 217 kts 309°
2026-04-15 12:30 47.50605 19.13610 5210 ft 239 kts 337°
2026-04-15 12:30 47.52295 19.13248 5648 ft 254 kts
2026-04-15 12:30 47.54031 19.13695 6532 ft 251 kts 17°
2026-04-15 12:31 47.55383 19.14349 7219 ft 253 kts 17°
2026-04-15 12:31 47.57077 19.15071 7697 ft 271 kts 16°
2026-04-15 12:32 47.59021 19.15955 7340 ft 316 kts 18°
2026-04-15 12:32 47.61045 19.17040 8487 ft 299 kts 20°
2026-04-15 12:32 47.61365 19.17210 8708 ft 297 kts 18°
2026-04-15 12:33 47.62266 19.17598 9318 ft 292 kts 13°
2026-04-15 12:33 47.64218 19.18252 10434 ft 290 kts 14°
2026-04-15 12:33 47.66220 19.19108 10881 ft 310 kts 15°
2026-04-15 12:34 47.68343 19.20036 11340 ft 325 kts 15°
2026-04-15 12:34 47.70544 19.21006 11985 ft 332 kts 15°
2026-04-15 12:34 47.72763 19.21990 12803 ft 335 kts 15°
2026-04-15 12:34 47.75011 19.22991 13534 ft 339 kts 15°
2026-04-15 12:35 47.77288 19.24005 14244 ft 343 kts 15°
2026-04-15 12:35 47.79584 19.25029 14904 ft 346 kts 15°
2026-04-15 12:35 47.81904 19.26065 15566 ft 350 kts 15°
2026-04-15 12:35 47.84217 19.27100 16278 ft 353 kts 15°
2026-04-15 12:36 47.86586 19.28160 16946 ft 357 kts 15°
2026-04-15 12:36 47.88974 19.29230 17611 ft 361 kts 15°
2026-04-15 12:36 47.91391 19.30313 18220 ft 364 kts 15°
2026-04-15 12:36 47.93830 19.31408 18768 ft 368 kts 15°
2026-04-15 12:37 47.96291 19.32513 19299 ft 371 kts 15°
2026-04-15 12:37 47.98770 19.33629 19816 ft 374 kts 14°
2026-04-15 12:37 48.01275 19.34756 20307 ft 377 kts 14°
2026-04-15 12:37 48.03797 19.35893 20786 ft 380 kts 14°
2026-04-15 12:38 48.06328 19.37035 21259 ft 383 kts 14°
2026-04-15 12:38 48.08884 19.38189 21708 ft 385 kts 14°
2026-04-15 12:38 48.11472 19.39270 22166 ft 387 kts 11°
2026-04-15 12:38 48.14091 19.40248 22600 ft 389 kts 11°
2026-04-15 12:39 48.16697 19.41238 23020 ft 392 kts 11°
2026-04-15 12:39 48.19352 19.42257 23431 ft 395 kts 11°
2026-04-15 12:39 48.22020 19.43284 23825 ft 397 kts 11°
2026-04-15 12:39 48.24707 19.44320 24111 ft 401 kts 11°
2026-04-15 12:40 48.27443 19.45378 24162 ft 411 kts 11°
2026-04-15 12:40 48.30244 19.46461 24177 ft 422 kts 12°
2026-04-15 12:40 48.33119 19.47574 24174 ft 432 kts 12°
2026-04-15 12:40 48.36067 19.48717 24178 ft 441 kts 12°
2026-04-15 12:41 48.39072 19.49883 24179 ft 450 kts 12°
2026-04-15 12:41 48.42132 19.51072 24172 ft 458 kts 12°
2026-04-15 12:41 48.45237 19.52280 24195 ft 465 kts 12°
2026-04-15 12:41 48.48388 19.53508 24187 ft 471 kts 12°
2026-04-15 12:42 48.51587 19.54755 24197 ft 477 kts 12°
2026-04-15 12:42 48.54824 19.56020 24191 ft 483 kts 12°
2026-04-15 12:42 48.58095 19.57299 24195 ft 488 kts 12°
2026-04-15 12:42 48.61393 19.58591 24196 ft 491 kts 12°
2026-04-15 12:43 48.64670 19.59875 24196 ft 493 kts 12°
2026-04-15 12:43 48.67991 19.61180 24200 ft 495 kts 12°
2026-04-15 12:43 48.71341 19.62497 24204 ft 496 kts 12°
2026-04-15 12:43 48.74688 19.63815 24200 ft 496 kts 12°
2026-04-15 12:44 48.78029 19.65132 24205 ft 497 kts 12°
2026-04-15 12:44 48.81381 19.66456 24201 ft 496 kts 12°
2026-04-15 12:44 48.84625 19.67739 24207 ft 469 kts 12°
2026-04-15 12:44 48.87706 19.68960 24212 ft 446 kts 12°
2026-04-15 12:45 48.90638 19.70121 24215 ft 426 kts 12°
2026-04-15 12:45 48.93445 19.71235 24233 ft 408 kts 12°
2026-04-15 12:45 48.96131 19.72302 24243 ft 391 kts 12°
2026-04-15 12:45 48.98713 19.73329 24240 ft 375 kts 11°
2026-04-15 12:46 49.00363 19.73986 24244 ft 366 kts 11°
2026-04-15 12:46 49.03539 19.75251 24236 ft 347 kts 11°
2026-04-15 12:46 49.05836 19.76168 24237 ft 334 kts 11°
2026-04-15 12:46 49.08035 19.77046 24241 ft 320 kts 11°
2026-04-15 12:47 49.10140 19.77888 24229 ft 306 kts 11°
2026-04-15 12:47 49.12152 19.78693 24223 ft 292 kts 11°
2026-04-15 12:47 49.13455 19.79215 24216 ft 282 kts 11°
2026-04-15 12:47 49.15343 19.79970 24221 ft 285 kts 11°
2026-04-15 12:48 49.17287 19.80747 24220 ft 301 kts 11°
2026-04-15 12:48 49.19367 19.81581 24226 ft 319 kts 11°
2026-04-15 12:48 49.21569 19.82467 24207 ft 336 kts 11°
2026-04-15 12:48 49.23890 19.83400 24207 ft 353 kts 11°
2026-04-15 12:49 49.26323 19.84379 24199 ft 370 kts 11°
2026-04-15 12:49 49.28867 19.85404 24191 ft 386 kts 12°
2026-04-15 12:49 49.31506 19.86468 24192 ft 398 kts 12°
2026-04-15 12:49 49.34200 19.87556 24199 ft 401 kts 12°
2026-04-15 12:50 49.36905 19.88649 24211 ft 402 kts 12°
2026-04-15 12:50 49.39612 19.89744 24221 ft 402 kts 12°
2026-04-15 12:50 49.42315 19.90839 24228 ft 402 kts 12°
2026-04-15 12:50 49.45021 19.91937 24222 ft 402 kts 12°
2026-04-15 12:51 49.47728 19.93036 24221 ft 402 kts 12°
2026-04-15 12:51 49.50431 19.94134 24225 ft 402 kts 12°
2026-04-15 12:51 49.53132 19.95234 24226 ft 402 kts 12°
2026-04-15 12:51 49.55808 19.96324 24223 ft 401 kts 12°
2026-04-15 12:52 49.58544 19.97440 24224 ft 401 kts 12°
2026-04-15 12:52 49.61208 19.98527 24238 ft 401 kts 12°
2026-04-15 12:52 49.63903 19.99629 24231 ft 401 kts 12°
2026-04-15 12:52 49.66597 20.00732 24227 ft 401 kts 12°
2026-04-15 12:53 49.69293 20.01836 24222 ft 401 kts 12°
2026-04-15 12:53 49.71993 20.02944 24231 ft 401 kts 12°
2026-04-15 12:53 49.74688 20.04050 24226 ft 401 kts 12°
2026-04-15 12:53 49.77388 20.05161 24233 ft 401 kts 12°
2026-04-15 12:54 49.80085 20.06270 24230 ft 401 kts 12°
2026-04-15 12:54 49.82776 20.07379 24238 ft 400 kts 12°
2026-04-15 12:54 49.85467 20.08490 24222 ft 400 kts 12°
2026-04-15 12:54 49.88159 20.09601 24231 ft 400 kts 12°
2026-04-15 12:55 49.90845 20.10712 24225 ft 400 kts 12°
2026-04-15 12:55 49.93532 20.11825 24239 ft 400 kts 12°
2026-04-15 12:55 49.96220 20.12938 24226 ft 400 kts 12°
2026-04-15 12:55 49.98904 20.14052 24228 ft 400 kts 12°
2026-04-15 12:56 50.01595 20.15170 24235 ft 400 kts 12°
2026-04-15 12:56 50.04288 20.16290 24233 ft 400 kts 12°
2026-04-15 12:56 50.06974 20.17408 24235 ft 399 kts 12°
2026-04-15 12:56 50.09656 20.18527 24232 ft 399 kts 12°
2026-04-15 12:57 50.12305 20.19632 24237 ft 399 kts 12°
2026-04-15 12:57 50.14985 20.20752 24228 ft 399 kts 12°
2026-04-15 12:57 50.17673 20.21877 24225 ft 399 kts 12°
2026-04-15 12:57 50.20360 20.23002 24226 ft 399 kts 12°
2026-04-15 12:58 50.23044 20.24127 24228 ft 399 kts 12°
2026-04-15 12:58 50.25724 20.25252 24227 ft 399 kts 12°
2026-04-15 12:58 50.28402 20.26378 24231 ft 398 kts 12°
2026-04-15 12:58 50.31075 20.27502 24227 ft 398 kts 12°
2026-04-15 12:59 50.36419 20.29755 24221 ft 398 kts 12°
2026-04-15 12:59 50.39094 20.30884 24225 ft 398 kts 12°
2026-04-15 12:59 50.41762 20.32012 24226 ft 398 kts 12°
2026-04-15 13:00 50.44433 20.33142 24224 ft 397 kts 12°
2026-04-15 13:00 50.47099 20.34272 24226 ft 397 kts 12°
2026-04-15 13:00 50.49768 20.35405 24242 ft 397 kts 12°
2026-04-15 13:00 50.52422 20.36531 24222 ft 395 kts 12°
2026-04-15 13:01 50.55068 20.37657 24229 ft 392 kts 13°
2026-04-15 13:01 50.57702 20.38778 24221 ft 392 kts 13°
2026-04-15 13:01 50.60331 20.39899 24222 ft 392 kts 13°
2026-04-15 13:01 50.62964 20.41022 24222 ft 392 kts 13°
2026-04-15 13:02 50.65556 20.42129 24219 ft 392 kts 13°
2026-04-15 13:02 50.68186 20.43254 24221 ft 392 kts 13°
2026-04-15 13:02 50.70817 20.44380 24221 ft 392 kts 13°
2026-04-15 13:02 50.73440 20.45505 24235 ft 390 kts 13°
2026-04-15 13:03 50.76056 20.46627 24222 ft 389 kts 13°
2026-04-15 13:03 50.78667 20.47750 24220 ft 389 kts 13°
2026-04-15 13:03 50.81278 20.48872 24221 ft 388 kts 13°
2026-04-15 13:03 50.83887 20.49996 24221 ft 388 kts 13°
2026-04-15 13:04 50.86493 20.51120 24223 ft 388 kts 13°
2026-04-15 13:04 50.89100 20.52245 24225 ft 389 kts 13°
2026-04-15 13:04 50.91711 20.53373 24218 ft 388 kts 13°
2026-04-15 13:04 50.94322 20.54503 24226 ft 388 kts 13°
2026-04-15 13:05 50.96926 20.55631 24220 ft 388 kts 13°
2026-04-15 13:05 50.99532 20.56761 24217 ft 388 kts 13°
2026-04-15 13:05 51.02134 20.57891 24220 ft 388 kts 13°
2026-04-15 13:05 51.04684 20.59000 24219 ft 377 kts 13°
2026-04-15 13:06 51.07164 20.60079 24175 ft 364 kts 13°
2026-04-15 13:06 51.09579 20.61132 23957 ft 356 kts 13°
2026-04-15 13:06 51.11959 20.62171 23543 ft 354 kts 13°
2026-04-15 13:06 51.14326 20.63202 23135 ft 351 kts 13°
2026-04-15 13:07 51.16671 20.64227 22767 ft 348 kts 13°
2026-04-15 13:07 51.18985 20.65276 22465 ft 343 kts 17°
2026-04-15 13:07 51.21063 20.66921 22754 ft 322 kts 26°
2026-04-15 13:07 51.22950 20.68597 22937 ft 303 kts 25°
2026-04-15 13:08 51.24809 20.70227 22409 ft 307 kts 25°
2026-04-15 13:08 51.26681 20.71864 22222 ft 307 kts 25°
2026-04-15 13:08 51.28564 20.73511 22228 ft 309 kts 25°
2026-04-15 13:08 51.30452 20.75163 22218 ft 309 kts 25°
2026-04-15 13:09 51.31941 20.76467 22219 ft 309 kts 25°
2026-04-15 13:12 51.33733 20.78037 22217 ft 309 kts 25°
2026-04-15 13:12 51.35624 20.79695 22212 ft 309 kts 25°
2026-04-15 13:12 51.37510 20.81352 22204 ft 309 kts 25°
2026-04-15 13:12 51.39376 20.82991 22226 ft 309 kts 25°
2026-04-15 13:13 51.41260 20.84648 22217 ft 309 kts 25°
2026-04-15 13:13 51.43143 20.86306 22217 ft 309 kts 25°
2026-04-15 13:13 51.45026 20.87966 22207 ft 309 kts 25°
2026-04-15 13:13 51.46908 20.89626 22202 ft 309 kts 25°
2026-04-15 13:14 51.48788 20.91285 22210 ft 309 kts 26°
2026-04-15 13:14 51.50676 20.92954 22208 ft 309 kts 26°
2026-04-15 13:14 51.52558 20.94619 22208 ft 309 kts 26°
2026-04-15 13:14 51.54440 20.96285 22213 ft 309 kts 26°
2026-04-15 13:15 51.56319 20.97950 22218 ft 309 kts 26°
2026-04-15 13:15 51.58200 20.99619 22209 ft 309 kts 25°
2026-04-15 13:15 51.60081 21.01289 22208 ft 308 kts 26°
2026-04-15 13:15 51.61958 21.02957 22203 ft 307 kts 26°
2026-04-15 13:16 51.63815 21.04611 21840 ft 306 kts 26°
2026-04-15 13:16 51.65657 21.06251 21471 ft 306 kts 26°
2026-04-15 13:16 51.67516 21.07907 21094 ft 305 kts 26°
2026-04-15 13:16 51.69370 21.09561 20740 ft 304 kts 26°
2026-04-15 13:17 51.71217 21.11211 20377 ft 303 kts 26°
2026-04-15 13:17 51.73056 21.12854 19898 ft 302 kts 26°
2026-04-15 13:17 51.74915 21.14518 19071 ft 311 kts 26°
2026-04-15 13:17 51.76842 21.16243 18113 ft 322 kts 26°
2026-04-15 13:18 51.78832 21.18027 17043 ft 332 kts 27°
2026-04-15 13:18 51.80885 21.19867 15953 ft 343 kts 27°
2026-04-15 13:18 51.82995 21.21762 14961 ft 349 kts 27°
2026-04-15 13:18 51.85109 21.23662 14260 ft 345 kts 27°
2026-04-15 13:19 51.87197 21.25543 13514 ft 342 kts 27°
2026-04-15 13:19 51.89264 21.27406 12741 ft 338 kts 27°
2026-04-15 13:19 51.91303 21.29246 12200 ft 329 kts 27°
2026-04-15 13:19 51.93226 21.30983 12151 ft 305 kts 27°
2026-04-15 13:20 51.95015 21.32602 12077 ft 286 kts 27°
2026-04-15 13:20 51.96728 21.34151 12024 ft 292 kts 27°
2026-04-15 13:20 51.98547 21.35798 11952 ft 305 kts 27°
2026-04-15 13:20 52.00442 21.37516 11888 ft 310 kts 27°
2026-04-15 13:21 52.02306 21.39207 11819 ft 312 kts 27°
2026-04-15 13:21 52.04199 21.40927 11765 ft 312 kts 27°
2026-04-15 13:21 52.06094 21.42650 11700 ft 311 kts 27°
2026-04-15 13:21 52.07984 21.44370 11640 ft 311 kts 27°
2026-04-15 13:22 52.09870 21.46088 11572 ft 311 kts 27°
2026-04-15 13:22 52.11756 21.47807 11506 ft 310 kts 27°
2026-04-15 13:22 52.13640 21.49528 11440 ft 310 kts 27°
2026-04-15 13:22 52.15517 21.51242 11379 ft 309 kts 27°
2026-04-15 13:23 52.17369 21.52936 11373 ft 302 kts 27°
2026-04-15 13:23 52.19262 21.54305 11320 ft 295 kts
2026-04-15 13:23 52.21267 21.54303 11260 ft 288 kts 344°
2026-04-15 13:23 52.23144 21.53201 11164 ft 287 kts 336°
2026-04-15 13:24 52.24996 21.51974 10922 ft 286 kts 335°
2026-04-15 13:24 52.26830 21.50730 10620 ft 285 kts 335°
2026-04-15 13:24 52.28647 21.49480 10370 ft 279 kts 335°
2026-04-15 13:24 52.30412 21.48252 10236 ft 273 kts 334°
2026-04-15 13:25 52.32132 21.47048 9991 ft 272 kts 334°
2026-04-15 13:25 52.33869 21.45828 9653 ft 270 kts 334°
2026-04-15 13:25 52.35592 21.44615 9341 ft 269 kts 334°
2026-04-15 13:25 52.37304 21.43409 9013 ft 268 kts 334°
2026-04-15 13:26 52.39012 21.42203 8702 ft 266 kts 334°
2026-04-15 13:26 52.40709 21.41004 8431 ft 265 kts 334°
2026-04-15 13:26 52.42401 21.39806 8151 ft 264 kts 335°
2026-04-15 13:26 52.44091 21.38610 7868 ft 263 kts 335°
2026-04-15 13:27 52.45745 21.37438 7697 ft 252 kts 335°
2026-04-15 13:27 52.47314 21.36325 7592 ft 241 kts 334°
2026-04-15 13:27 52.48829 21.35247 7444 ft 234 kts 333°
2026-04-15 13:27 52.50114 21.33707 7174 ft 233 kts 306°
2026-04-15 13:28 52.50772 21.31316 6970 ft 231 kts 279°
2026-04-15 13:28 52.50779 21.28688 6700 ft 231 kts 264°
2026-04-15 13:28 52.50603 21.26062 6336 ft 231 kts 263°
2026-04-15 13:28 52.50420 21.23653 6017 ft 231 kts 262°
2026-04-15 13:29 52.50210 21.21055 5714 ft 228 kts 262°
2026-04-15 13:29 52.49999 21.18523 5436 ft 220 kts 261°
2026-04-15 13:29 52.49788 21.16070 5153 ft 214 kts 261°
2026-04-15 13:29 52.49582 21.13703 4905 ft 206 kts 261°
2026-04-15 13:30 52.49377 21.11385 4672 ft 205 kts 261°
2026-04-15 13:30 52.49172 21.09076 4438 ft 204 kts 261°
2026-04-15 13:30 52.48967 21.06770 4226 ft 204 kts 261°
2026-04-15 13:30 52.48761 21.04473 4070 ft 204 kts 261°
2026-04-15 13:31 52.48554 21.02173 3977 ft 204 kts 261°
2026-04-15 13:31 52.48347 20.99878 3859 ft 201 kts 261°
2026-04-15 13:31 52.48149 20.97692 3663 ft 186 kts 261°
2026-04-15 13:31 52.47963 20.95672 3529 ft 171 kts 261°
2026-04-15 13:32 52.47791 20.93820 3395 ft 158 kts 260°
2026-04-15 13:32 52.47627 20.92059 3281 ft 156 kts 261°
2026-04-15 13:32 52.47458 20.90240 3196 ft 168 kts 261°
2026-04-15 13:32 52.47277 20.88311 3130 ft 169 kts 261°
2026-04-15 13:33 52.47102 20.86439 3072 ft 164 kts 261°
2026-04-15 13:33 52.46933 20.84603 2861 ft 162 kts 261°
2026-04-15 13:33 52.46765 20.82785 2582 ft 161 kts 262°
2026-04-15 13:33 52.46600 20.81001 2330 ft 152 kts 262°
2026-04-15 13:34 52.46450 20.79379 2090 ft 139 kts 262°
2026-04-15 13:34 52.46307 20.77845 1828 ft 135 kts 263°
2026-04-15 13:34 52.46168 20.76358 1591 ft 133 kts 263°
2026-04-15 13:34 52.46029 20.74867 1367 ft 132 kts 263°
2026-04-15 13:35 52.45893 20.73386 1173 ft 130 kts 263°
2026-04-15 13:35 52.45759 20.71921 991 ft 130 kts 264°
2026-04-15 13:35 52.45620 20.70465 830 ft 129 kts 262°
2026-04-15 13:35 52.45489 20.69020 613 ft 127 kts 263°
2026-04-15 13:36 52.45348 20.67593 434 ft 127 kts 263°
2026-04-15 13:36 52.45211 20.66145 342 ft 121 kts 263°
2026-04-15 13:36 52.45116 20.65113 339 ft 58 kts 262°
2026-04-15 13:36 52.45055 20.64483 341 ft 24 kts 261°
2026-04-15 13:37 52.44980 20.64388 337 ft 13 kts 182°
2026-04-15 13:37 52.44875 20.64380 340 ft 17 kts 182°
2026-04-15 13:37 52.44749 20.64371 339 ft 17 kts 182°
2026-04-15 13:37 52.44712 20.64422 340 ft 8 kts 92°
2026-04-15 13:38 52.44721 20.64525 340 ft 11 kts 81°
2026-04-15 13:38 52.44734 20.64663 340 ft 14 kts 81°
2026-04-15 13:38 52.44751 20.64835 336 ft 17 kts 81°
2026-04-15 13:38 52.44771 20.65041 340 ft 20 kts 81°
2026-04-15 13:39 52.44793 20.65278 340 ft 23 kts 81°
2026-04-15 13:39 52.44806 20.65418 337 ft 3 kts 84°
2026-04-15 13:39 52.44794 20.65440 340 ft 2 kts 171°
2026-04-15 13:39 52.44771 20.65427 340 ft 5 kts 206°
2026-04-15 13:40 52.44760 20.65419 340 ft 0 kts 206°